Regional Weather Roundup
Issued by NWS Midland/Odessa, TX

Current Version | Previous Version | Text Only | Print | Product List | Glossary On
Versions: 1 2 3 4 5 6 7 8 9 10 11 12 13 14 15 16 17 18 19 20 21 22 23 24 25 26 27 28 29 30 31 32 33 34 35 36 37 38 39 40 41 42 43 44 45 46 47 48 49 50
000 ASUS44 KMAF 041210 RWRMAF MIDLAND AREA WEATHER ROUNDUP NATIONAL WEATHER SERVICE MIDLAND TX 600 AM CST THU MAR 04 2021 ...IN SOUTHWEST TEXAS AND SOUTHEAST NEW MEXICO... CITY SKY/WX TMP DP RH WIND PRES REMARKS ALPINE PTCLDY 55 23 28 CALM 30.13S ANDREWS FAIR 50 33 51 S10 30.01F ARTESIA CLEAR 45 23 42 CALM 30.01R BIG SPRING PTCLDY 47 34 62 SE10 30.02S CARLSBAD CLEAR 43 25 49 S7 29.97S WCI 39 DRYDEN N/A 48 35 60 MISG 30.06R FORT STOCKTON CLEAR 49 33 54 SE8 30.00S GUAD PASS CLOUDY 57 15 19 SW12 30.07R HOBBS PTCLDY 45 28 53 S8 30.00S LAMESA NOT AVBL MARFA CLEAR 38 21 50 CALM 30.12S MIDLAND AIRPK PTCLDY 50 33 52 S8 30.01F MIDLAND INTL CLEAR 44 31 60 S6 30.01S ODESSA CLEAR 48 32 53 SW8 30.02R PECOS CLEAR 38 24 57 CALM 29.98F PRESIDIO FAIR 57 28 33 N3 30.06S SEMINOLE PTCLDY 47 32 54 S5 30.04F SNYDER MOCLDY 49 33 53 S7 30.03S WINK CLEAR 50 33 52 SE14 29.97F $$ ...OTHER STATIONS IN TEXAS... CITY SKY/WX TMP DP RH WIND PRES REMARKS ABILENE PTCLDY 56 38 50 S9 30.03R AMARILLO MOCLDY 43 16 33 S5 29.97F AUSTIN CLEAR 46 36 68 CALM 30.13R BROWNSVILLE PTCLDY 58 55 90 E6 30.09S CORPUS CHRISTI MOCLDY 50 49 96 E6 30.12R DALLAS FTW CLEAR 49 40 71 S8 30.10S DEL RIO PTCLDY 55 48 77 E10 30.07R EL PASO PTCLDY 59 31 34 SW9 30.00R HOUSTON INT PTCLDY 43 40 89 CALM 30.16R LUBBOCK MOCLDY 53 30 41 SW9 30.00S SAN ANGELO CLEAR 47 37 68 S6 30.05R SAN ANTONIO CLOUDY 47 41 80 NW3 30.14R WACO CLEAR 43 39 86 S6 30.13R WCI 39 WICHITA FALLS CLEAR 37 29 72 SE3 30.08R $$ ...OTHER LOCATIONS IN NEW MEXICO... CITY SKY/WX TMP DP RH WIND PRES REMARKS ALAMOGORDO PTCLDY 59 30 33 S14 30.00R ALBUQUERQUE MOCLDY 46 21 37 NW7 30.02R CANNON AFB PTCLDY 39 11 32 CALM 29.99F CLOVIS MOCLDY 42 14 32 W3 29.99F HOLLOMAN AFB CLEAR 55 30 39 SE10 30.01R ROSWELL CLEAR 48 24 39 E5 29.96R RUIDOSO PTCLDY 46 25 42 SW8 30.08S SANTA FE PTCLDY 38 15 39 SE8 30.00R WCI 32 TRUTH OR CONSE CLEAR 55 23 28 W9 30.00R TUCUMCARI PTCLDY 54 15 21 S5 29.93F $$

USA.gov is the U.S. government's official web portal to all federal, state and local government web resources and services.